KE9LZ Weather Reports


time (UTC)temp
C
wind
direction
speed
KPH
gust
KPH
rain 1hr
cm
rain 24hr
cm
rain mn
cm
humidity
%
barometer
mb
20260906001004 22 85 3.2 9.7 0.00 0.10 0.10 81 1021.3
20260905235003 23 70 3.2 11.3 0.00 0.10 0.10 79 1021.1
20260905234003 23 35 3.2 8.0 0.00 0.10 0.10 77 1021.1
20260905232004 23 21 6.4 12.9 0.00 0.10 0.10 76 1021.4
20260905231004 23 20 6.4 12.9 0.00 0.10 0.10 75 1021.4
20260905230004 23 8 6.4 14.5 0.00 0.10 0.10 75 1021.3
20260905225004 23 17 8.0 14.5 0.00 0.10 0.10 75 1021.2
20260905224003 24 10 6.4 14.5 0.00 0.10 0.10 74 1020.9
20260905223003 25 39 3.2 20.9 0.00 0.10 0.10 73 1020.8
20260905222003 24 44 4.8 14.5 0.00 0.10 0.10 74 1020.8
20260905221003 25 34 4.8 14.5 0.00 0.10 0.10 72 1021.0
20260905220004 25 23 3.2 11.3 0.00 0.10 0.10 72 1020.7
20260905215004 24 58 4.8 11.3 0.00 0.10 0.10 72 1021.0
20260905214003 24 34 6.4 16.1 0.00 0.10 0.10 75 1021.2
20260905213004 24 19 6.4 14.5 0.00 0.10 0.10 76 1020.7
20260905212003 23 20 6.4 12.9 0.00 0.10 0.10 78 1021.0
20260905211004 23 348 8.0 16.1 0.00 0.10 0.10 78 1021.3
20260905210003 23 4 8.0 12.9 0.00 0.10 0.10 78 1021.1
20260905205003 23 5 4.8 11.3 0.00 0.10 0.10 80 1020.9
20260905204003 23 43 6.4 14.5 0.00 0.10 0.10 80 1021.0
20260905202004 23 40 4.8 14.5 0.00 0.10 0.10 81 1020.8
20260905201004 23 74 3.2 14.5 0.00 0.10 0.10 81 1020.6
20260905200003 23 28 3.2 9.7 0.00 0.10 0.10 82 1020.9
20260905195004 23 62 4.8 14.5 0.00 0.10 0.10 83 1020.8
20260905194003 23 55 3.2 9.7 0.00 0.10 0.10 83 1021.0
20260905192004 23 19 4.8 12.9 0.00 0.10 0.10 84 1021.1
20260905191003 23 331 6.4 11.3 0.00 0.10 0.10 84 1021.0
20260905190004 23 13 6.4 12.9 0.00 0.10 0.10 84 1021.1
20260905185003 23 331 6.4 14.5 0.00 0.10 0.10 85 1021.2
20260905184003 23 28 4.8 9.7 0.00 0.10 0.10 86 1021.2
20260905183004 22 8 6.4 12.9 0.00 0.10 0.10 86 1021.3
20260905182004 23 53 3.2 9.7 0.00 0.10 0.10 85 1021.2
20260905181004 22 52 3.2 9.7 0.00 0.10 0.10 87 1021.2
20260905174004 22 97 3.2 12.9 0.00 0.10 0.10 90 1021.2
20260905173004 22 357 4.8 9.7 0.00 0.10 0.10 89 1021.2
20260905172004 22 48 3.2 8.0 0.00 0.10 0.10 90 1021.4
20260905171003 22 77 3.2 8.0 0.00 0.10 0.10 90 1021.1
20260905170004 22 57 3.2 11.3 0.00 0.10 0.10 91 1021.5
20260905163003 22 80 3.2 11.3 0.00 0.10 0.10 90 1021.4
20260905162004 23 103 3.2 11.3 0.00 0.10 0.10 89 1021.4
20260905161003 22 78 3.2 16.1 0.00 0.10 0.10 90 1021.3
20260905160003 22 22 4.8 9.7 0.00 0.10 0.10 93 1021.3
20260905155003 22 77 3.2 8.0 0.00 0.10 0.10 93 1021.2
20260905153003 21 56 3.2 11.3 0.00 0.10 0.10 94 1021.2
20260905152004 21 73 3.2 9.7 0.00 0.10 0.10 95 1020.9
20260905151003 21 155 3.2 9.7 0.00 0.10 0.10 95 1020.8
20260905150004 21 23 4.8 12.9 0.00 0.10 0.10 95 1020.5
20260905144003 21 48 3.2 12.9 0.00 0.10 0.10 97 1020.3
20260905143003 21 29 4.8 12.9 0.00 0.10 0.10 96 1020.2
20260905142003 21 128 4.8 9.7 0.00 0.10 0.10 97 1020.1
20260905140003 20 37 4.8 11.3 0.00 0.10 0.10 99 1020.7
20260905134003 20 38 4.8 11.3 0.00 0.10 0.10 99 1020.6
20260905133004 20 30 8.0 20.9 0.00 0.10 0.10 99 1020.6
20260905132004 20 10 4.8 11.3 0.00 0.10 0.10 99 1020.4
20260905131003 20 22 4.8 8.0 0.03 0.10 0.10 99 1020.2
20260905125003 20 85 3.2 4.8 0.05 0.10 0.10 99 1020.0
20260905124004 20 93 3.2 4.8 0.05 0.08 0.08 99 1019.9
20260905123004 20 33 3.2 8.0 0.05 0.08 0.08 99 1019.8
20260905122003 20 145 1.6 8.0 0.05 0.08 0.08 99 1019.9
20260905121003 20 74 3.2 8.0 0.05 0.08 0.08 99 1019.6
20260905120004 20 41 3.2 14.5 0.05 0.05 0.05 99 1019.4
20260905115004 20 91 1.6 11.3 0.03 0.05 0.05 99 1019.2
20260905114004 20 23 8.0 12.9 0.03 0.03 0.03 99 1019.2
20260905113003 20 348 3.2 9.7 0.00 0.03 0.03 99 1019.1
20260905112004 20 14 8.0 16.1 0.00 0.05 0.03 99 1018.8
20260905105004 20 6 8.0 12.9 0.00 0.20 0.00 99 1018.7
20260905102003 20 87 4.8 9.7 0.00 1.02 0.00 99 1018.7
20260905101004 20 42 8.0 12.9 0.00 1.04 0.00 99 1018.8
20260905095003 20 2 6.4 16.1 0.00 1.35 0.00 99 1018.7
20260905094004 20 28 4.8 12.9 0.00 1.50 0.00 99 1018.4
20260905093003 20 49 8.0 14.5 0.00 1.70 0.00 99 1018.4
20260905092004 20 18 8.0 16.1 0.00 1.75 0.00 99 1018.5
20260905091003 20 8 3.2 14.5 0.00 1.80 0.00 99 1018.4
20260905090003 20 0 8.0 12.9 0.00 1.91 0.00 99 1018.4
20260905085004 21 28 8.0 19.3 0.00 1.98 0.00 98 1018.6
20260905082004 21 21 8.0 12.9 0.00 2.16 0.00 97 1018.3
20260905081004 21 39 4.8 9.7 0.00 2.16 0.00 97 1018.1
20260905080004 21 36 3.2 8.0 0.00 2.16 0.00 97 1017.9
20260905075004 21 98 1.6 8.0 0.00 2.16 0.00 97 1017.8
20260905074003 21 42 3.2 9.7 0.00 2.16 0.00 97 1017.7
20260905073004 21 75 4.8 8.0 0.00 2.16 0.00 97 1018.0
20260905072003 21 78 3.2 4.8 0.00 2.18 0.00 97 1018.0
20260905071003 21 33 3.2 3.2 0.00 2.21 0.00 97 1018.1
20260905070004 21 74 1.6 4.8 0.00 2.26 0.00 97 1017.9
20260905065004 21 36 1.6 8.0 0.00 2.62 0.00 97 1018.0
20260905064004 21 33 4.8 8.0 0.00 2.62 0.00 96 1018.2
20260905063004 21 84 1.6 3.2 0.00 2.62 0.00 96 1017.9
20260905062003 21 78 1.6 8.0 0.00 2.62 0.00 96 1018.2
20260905060004 21 75 3.2 8.0 0.00 2.62 0.00 96 1018.2
20260905054003 21 38 4.8 9.7 0.00 2.62 0.00 96 1018.3
20260905053004 21 88 1.6 9.7 0.00 2.62 0.00 97 1018.2
20260905052004 22 28 3.2 8.0 0.00 2.62 0.00 97 1018.2
20260905050003 22 45 3.2 8.0 0.00 2.62 0.00 97 1018.2
20260905045004 22 41 3.2 4.8 0.00 2.62 2.62 96 1018.1
20260905044004 22 48 3.2 4.8 0.00 2.62 2.62 97 1018.3
20260905043003 22 37 4.8 8.0 0.00 2.64 2.62 97 1018.4
20260905042004 22 92 3.2 8.0 0.00 2.64 2.62 96 1018.1
20260905041004 22 81 3.2 8.0 0.00 2.64 2.62 96 1018.3
20260905040004 22 35 3.2 8.0 0.00 2.64 2.62 96 1018.2
20260905034004 22 67 3.2 4.8 0.00 2.64 2.62 96 1018.3
20260905033003 22 37 1.6 4.8 0.00 2.64 2.62 97 1018.1
20260905031004 22 96 3.2 8.0 0.00 2.67 2.62 96 1018.3
20260905024004 22 76 4.8 8.0 0.00 2.79 2.62 96 1017.8
20260905023004 22 61 3.2 8.0 0.00 2.82 2.62 95 1018.1
20260905022004 22 34 4.8 8.0 0.00 2.84 2.62 95 1018.0
20260905021004 22 81 3.2 9.7 0.00 2.84 2.62 95 1017.9
20260905020004 22 70 3.2 8.0 0.00 2.84 2.62 95 1018.0
20260905014004 22 63 3.2 8.0 0.00 2.84 2.62 95 1017.9
20260905013004 22 50 1.6 3.2 0.00 2.84 2.62 95 1017.7
20260905012004 22 65 1.6 4.8 0.00 2.84 2.62 95 1017.7
20260905011003 22 84 1.6 4.8 0.00 2.84 2.62 95 1017.6
20260905010004 22 74 1.6 3.2 0.00 2.84 2.62 94 1017.5
20260905004003 22 64 3.2 4.8 0.00 2.84 2.62 94 1017.5
20260905003003 22 73 4.8 8.0 0.00 2.84 2.62 94 1017.5